Theta_e
315 314 314 313 313 313 313 313 313 313 313 314 314 314 315 316 316 308 301 314 320 327 321 315 318 319 318 314 315 314 302 300 302 301 304 309 313 318 325 321 322 325 322 326 330
312 314 314 314 313 313 313 312 313 313 312 313 314 314 315 316 308 303 317 321 322 325 310 311 312 313 310 311 312 307 302 303 309 308 305 309 314 316 317 318 319 322 327 328 327
313 313 314 314 314 313 313 312 312 312 312 312 314 314 315 314 301 305 317 318 319 320 313 314 313 311 307 310 309 308 302 307 309 310 310 310 313 318 315 314 317 318 322 325 323
315 313 313 314 314 313 312 312 312 312 313 312 313 314 316 309 289 307 319 321 320 317 311 312 310 306 305 304 309 303 308 309 310 313 313 310 316 316 316 316 323 323 324 323 322
317 316 314 314 314 314 312 312 312 312 312 311 312 314 310 297 297 308 316 314 311 313 308 305 307 307 303 306 307 304 306 309 311 312 312 313 313 313 314 321 324 324 324 323 322
317 317 316 314 314 314 313 312 312 312 312 312 312 314 303 291 306 307 306 308 309 309 308 307 307 309 305 304 304 304 304 305 310 310 310 309 312 313 314 322 321 323 322 322 323
317 316 316 315 314 313 313 313 312 312 312 312 312 309 300 296 305 306 307 306 308 308 305 310 312 307 306 301 307 305 300 304 306 308 308 311 307 307 314 320 320 320 318 316 315
316 316 315 315 314 313 313 313 312 311 312 311 312 307 295 306 306 306 307 305 307 310 310 311 313 308 305 306 304 301 301 294 303 308 309 309 300 306 313 315 312 310 309 308 308
315 315 315 314 314 313 312 312 312 311 311 311 306 303 293 308 301 304 304 303 305 307 309 312 310 303 303 298 292 296 286 292 296 308 307 307 301 305 311 312 309 307 307 305 303
315 315 314 314 313 312 311 311 311 309 308 307 305 297 300 293 301 302 304 306 303 302 303 303 301 296 296 294 284 287 287 291 294 303 305 302 302 302 307 309 307 307 305 303 302
315 315 314 313 311 309 307 306 299 298 299 293 292 292 294 300 304 300 303 303 302 298 291 297 291 288 291 295 295 293 290 289 291 296 294 301 300 301 305 306 304 304 303 303 301
315 315 313 312 309 308 307 298 298 299 290 297 295 296 300 301 294 298 305 296 295 288 291 289 287 293 295 295 294 293 287 285 288 293 292 295 299 302 303 304 305 303 302 301 298
315 314 313 310 308 307 302 300 306 304 290 292 293 295 297 299 293 294 298 296 292 289 288 285 289 295 293 292 291 291 288 286 286 288 293 292 294 298 301 304 306 306 304 301 298
314 313 312 309 304 304 300 305 307 304 284 286 289 295 297 297 291 299 299 295 292 288 289 287 292 291 290 290 291 287 294 290 287 286 284 288 283 293 296 297 300 302 303 301 300
313 312 310 305 303 300 302 306 305 300 270 286 288 299 296 291 293 295 302 297 289 288 289 286 289 289 287 290 292 288 296 292 288 285 284 285 283 292 295 293 294 299 299 299 299
312 309 308 307 305 303 306 304 299 282 269 281 288 288 287 289 290 293 293 299 296 289 289 289 294 292 290 293 294 295 293 292 289 286 279 285 284 288 290 294 295 297 299 296 295
308 307 306 306 299 305 303 298 281 272 283 278 281 285 285 285 287 289 287 286 284 277 279 286 287 292 293 288 292 292 288 281 279 278 278 287 284 287 296 298 298 297 297 294 294
306 306 304 303 305 305 300 287 271 275 277 284 284 284 282 286 286 286 284 281 286 285 281 277 275 287 293 289 285 287 287 282 277 277 281 287 283 290 296 297 300 300 299 295 294
308 304 302 301 303 302 293 278 276 279 283 280 283 280 281 285 283 283 282 281 286 287 279 277 278 291 291 292 290 285 283 291 283 282 281 284 287 293 293 296 299 297 294 294 293
302 300 297 301 302 299 285 281 278 284 285 285 277 281 277 279 277 279 280 286 286 289 289 284 276 286 290 292 291 288 291 282 284 276 275 280 283 284 288 292 295 293 292 293 292
301 294 297 301 299 291 281 279 281 286 286 283 281 278 279 279 280 279 279 285 288 287 288 285 283 281 288 286 284 285 284 286 286 283 278 277 280 288 291 294 294 293 293 291 290
298 284 297 299 286 283 281 278 285 285 288 285 284 282 280 281 278 279 277 284 289 286 282 288 283 273 280 288 291 288 286 287 279 278 282 282 282 287 287 290 295 294 294 293 293
295 292 297 296 281 281 281 281 284 283 284 284 282 284 285 281 277 281 282 288 289 285 284 288 282 269 272 282 289 285 288 289 288 286 281 279 282 288 287 291 294 295 296 295 293
293 283 289 291 288 284 278 278 277 286 285 286 284 285 283 280 283 276 279 286 289 285 290 290 283 276 272 279 284 282 284 287 287 280 281 282 283 285 286 289 292 292 293 291 289
292 285 287 281 283 283 283 280 277 276 284 285 282 282 281 277 279 278 281 283 286 287 286 285 277 279 281 284 284 284 283 285 284 284 280 283 285 286 287 289 290 291 291 290 289
286 286 285 281 284 282 282 280 280 280 281 279 280 283 282 278 279 278 281 281 281 283 282 284 280 280 279 282 283 281 284 285 284 286 286 286 285 288 288 290 289 290 289 288 288
291 289 289 285 282 281 282 282 281 283 284 285 284 282 280 282 285 286 285 284 284 281 280 279 279 278 275 281 281 274 278 281 283 287 288 284 288 287 285 288 289 289 289 288 288
Wind_Speed
8 7 7 8 9 10 11 12 13 14 15 15 16 18 18 19 20 12 9 8 10 10 11 12 10 9 11 11 12 12 11 13 18 20 12 10 10 7 9 10 9 6 3 19 16
8 9 8 8 8 9 10 11 12 14 15 16 17 17 18 20 16 12 11 13 12 10 8 7 5 11 3 10 6 7 8 15 18 15 14 8 13 9 7 13 10 12 15 20 15
8 8 8 8 8 9 10 11 12 13 15 16 17 18 19 17 11 6 11 14 12 9 5 2 1 3 7 11 15 14 15 18 23 18 13 10 12 12 8 8 12 21 18 18 17
7 8 8 9 8 8 9 10 11 12 14 16 18 19 22 10 4 5 10 11 15 8 8 3 2 2 5 13 13 20 16 19 25 24 4 4 16 17 11 2 19 19 18 18 19
8 8 8 8 9 8 8 9 11 12 13 14 16 17 11 7 6 9 9 11 13 4 8 9 9 5 6 9 15 20 19 21 22 12 7 6 8 7 4 13 20 20 19 18 17
6 8 8 8 9 8 9 10 11 12 12 13 14 17 10 9 5 11 10 10 9 11 9 9 6 5 4 5 13 6 18 20 22 11 13 6 9 9 4 13 18 19 17 11 11
8 7 8 8 8 8 9 10 12 13 13 14 13 11 11 12 10 10 10 8 9 9 10 7 7 6 3 1 6 10 12 19 19 16 13 5 5 2 13 11 16 15 14 13 11
6 7 6 7 8 8 9 11 13 13 14 13 12 10 6 4 6 9 11 12 8 7 9 10 7 8 6 2 3 6 12 7 17 21 10 11 15 11 11 13 15 14 12 11 10
6 6 5 5 6 7 9 13 15 15 14 11 7 4 7 3 8 10 11 11 11 9 9 6 5 6 4 2 3 3 3 12 17 25 12 14 8 13 13 12 14 12 12 12 11
6 5 5 4 3 6 11 17 12 8 8 6 5 6 4 10 13 14 12 10 8 10 8 4 7 6 10 7 5 7 5 8 14 17 16 17 6 15 14 15 13 13 12 11 10
6 6 6 5 1 5 9 7 2 3 3 4 9 8 11 13 11 5 8 8 10 10 12 13 7 10 15 12 6 6 4 6 7 14 19 17 11 16 14 14 15 13 12 11 11
7 7 7 6 2 5 6 4 4 1 8 7 5 8 7 5 8 7 4 6 8 11 13 12 13 13 10 14 12 10 4 5 2 7 10 14 10 15 16 14 15 16 14 14 11
9 10 9 6 3 2 9 6 2 3 5 2 2 5 5 6 8 10 7 9 11 13 14 14 12 13 13 11 13 14 13 6 3 2 3 10 6 16 11 9 10 12 14 14 14
12 11 8 6 2 1 4 2 3 3 3 1 1 2 4 7 5 7 3 6 4 9 12 11 10 16 16 12 13 12 12 10 6 2 2 7 5 12 12 12 11 10 8 16 15
12 10 7 3 3 2 3 3 3 3 4 3 3 3 7 5 10 2 0 5 12 14 7 8 9 11 14 12 12 9 8 16 6 6 2 5 3 5 14 12 16 16 12 7 13
12 9 6 2 3 2 2 3 3 1 5 3 3 6 10 9 6 8 7 5 8 10 13 13 11 5 7 7 11 3 10 11 10 4 4 8 4 3 11 16 13 13 17 13 11
12 7 1 3 3 1 2 3 1 2 2 6 4 9 13 7 9 4 9 9 7 4 4 8 14 8 3 7 2 4 2 3 4 4 3 14 10 6 3 7 17 20 18 17 15
12 6 6 5 2 2 3 3 1 1 2 3 5 14 6 8 5 11 7 9 10 12 12 6 7 12 10 11 4 7 5 2 5 6 6 7 8 5 3 9 11 19 16 17 15
12 3 3 3 4 2 1 1 1 1 3 5 11 3 4 3 4 7 6 11 10 9 5 4 6 2 7 7 8 3 9 1 1 1 3 2 2 4 7 2 2 14 16 17 15
3 3 3 4 4 2 3 1 0 2 4 2 4 4 6 7 6 7 5 6 8 9 15 6 10 6 7 7 7 3 2 3 3 1 2 3 3 4 7 9 10 13 15 14 14
2 2 2 2 1 4 0 0 2 2 3 1 2 4 6 6 6 3 7 9 7 12 14 10 6 5 3 5 6 3 3 4 3 4 2 3 3 4 4 17 21 17 16 18 16
2 1 2 3 3 1 2 3 1 2 3 2 1 5 4 6 5 4 5 7 9 4 8 6 1 3 6 4 3 2 6 6 3 3 2 2 2 4 5 4 7 15 14 13 11
2 3 1 2 2 3 1 2 3 4 3 3 4 6 3 4 6 6 6 5 5 4 5 6 3 3 7 3 0 6 4 4 7 4 4 4 2 2 3 4 6 14 15 15 14
2 3 1 3 2 2 3 3 2 5 5 4 7 6 3 6 3 6 7 7 10 3 14 8 2 3 3 2 4 5 5 7 5 2 1 1 2 3 4 3 7 9 13 15 16
2 3 2 3 3 3 4 4 3 2 4 2 4 6 4 4 9 3 4 12 7 11 8 6 3 4 3 5 5 2 8 8 8 3 2 3 1 4 5 7 5 7 12 16 16
5 4 2 3 2 4 5 5 6 3 6 4 6 6 2 5 4 8 10 6 3 9 8 8 3 2 4 6 5 3 5 8 6 6 6 7 5 4 3 7 6 9 11 14 15
1 1 1 4 3 3 4 4 4 5 7 6 4 4 6 4 5 7 6 7 10 6 7 5 5 4 1 2 2 7 9 10 5 6 6 9 4 5 5 7 9 10 12 14 14
Wind_Direction
346 335 346 354 357 356 358 358 358 357 355 349 344 340 336 331 319 312 291 351 338 346 328 321 306 285 276 255 264 274 270 262 246 247 245 169 167 196 98 115 62 24 168 137 171
328 337 329 337 342 343 346 349 349 350 348 347 343 339 333 328 309 301 17 1 349 350 316 334 323 334 280 261 233 228 263 256 258 241 251 201 168 133 142 117 105 84 88 128 160
321 308 318 315 324 331 336 342 343 343 344 344 341 337 328 319 295 78 12 358 345 311 278 327 17 350 266 268 255 239 242 263 278 266 242 217 188 155 183 176 156 151 145 152 127
292 296 295 306 306 318 326 331 332 334 338 340 339 333 323 292 326 58 16 348 331 288 239 257 145 184 225 238 254 262 238 249 263 281 256 260 179 176 182 138 140 142 147 147 148
280 268 274 282 294 303 313 318 323 327 332 335 333 331 328 318 298 3 360 346 319 255 251 238 222 213 218 234 266 267 271 246 261 275 294 273 122 110 67 99 121 134 150 163 156
284 275 255 265 283 295 306 313 317 319 321 326 328 324 320 296 18 344 342 315 320 325 275 224 257 262 230 236 232 317 313 294 262 254 279 247 125 124 118 121 127 145 157 155 133
278 283 264 259 278 291 300 308 309 309 313 316 318 308 295 269 343 340 307 316 293 282 296 275 224 209 154 159 266 244 292 304 276 244 208 183 141 239 136 144 141 140 126 121 116
272 261 267 258 273 286 300 303 300 300 299 303 306 290 270 359 324 317 332 313 281 259 268 284 196 239 258 175 188 236 244 254 259 245 195 159 206 144 153 157 141 133 128 127 117
267 248 255 256 263 288 301 296 290 287 288 288 270 253 288 291 332 331 326 307 311 300 280 261 207 222 207 197 102 226 235 246 274 236 184 187 178 160 162 171 153 145 146 141 131
247 226 229 228 254 300 303 286 279 302 251 233 244 266 207 333 332 304 290 269 276 282 251 228 232 234 218 201 201 167 193 243 258 224 199 198 193 152 175 168 162 157 155 150 147
209 198 194 177 200 312 316 294 307 197 352 294 309 283 302 326 302 304 296 305 279 250 252 232 233 228 229 233 242 204 163 254 319 333 339 200 168 167 183 178 166 166 162 158 143
179 172 160 153 161 287 280 41 53 334 309 244 268 274 284 332 304 324 13 289 270 244 252 254 245 251 256 226 219 226 151 216 246 6 345 282 199 170 178 190 180 168 165 155 137
157 150 151 154 199 306 72 61 351 311 271 145 285 298 335 324 314 297 333 305 288 277 257 244 254 292 222 216 229 235 216 199 159 354 230 316 267 162 184 174 183 178 164 153 152
144 143 150 167 203 102 63 14 316 321 302 69 179 78 301 326 266 298 286 287 282 287 277 249 259 255 285 229 214 262 210 156 149 89 226 69 318 238 174 184 180 180 175 155 153
137 137 142 216 125 63 53 318 323 250 337 22 353 355 295 272 306 105 321 276 268 283 305 274 241 252 225 242 219 239 278 201 146 140 141 135 251 264 174 199 187 176 161 152 130
126 129 161 151 64 72 331 290 254 277 263 359 304 327 327 328 282 288 284 202 262 285 277 257 277 300 290 240 227 164 213 171 158 151 214 157 167 263 191 221 189 178 165 147 116
116 89 70 357 71 21 307 238 336 163 318 319 333 327 321 289 311 283 311 301 283 308 275 302 247 217 282 255 265 163 256 198 188 183 227 155 155 261 243 291 188 182 165 146 147
125 94 50 57 72 336 249 48 310 194 357 339 312 315 286 351 303 350 290 279 260 258 282 286 308 211 192 224 186 213 214 284 190 178 150 164 180 195 314 307 237 171 163 143 154
143 134 95 20 358 300 166 82 311 34 345 355 315 337 316 3 316 330 320 285 276 296 241 278 253 96 265 237 193 187 207 0 134 238 68 150 217 245 125 300 163 149 146 156 159
142 144 65 339 352 265 73 308 266 340 329 33 342 355 309 330 332 5 298 318 327 360 356 284 296 246 181 303 262 234 345 280 321 39 103 238 222 168 175 174 164 161 162 157 146
173 92 74 343 303 49 153 157 277 219 275 345 339 288 288 335 322 312 276 311 24 335 324 287 246 292 114 214 201 182 265 228 138 261 175 156 236 5 194 184 184 181 170 163 157
157 84 52 286 59 55 203 159 294 234 199 284 274 241 255 307 285 273 263 311 15 302 280 252 319 271 242 323 6 281 236 202 159 249 337 81 321 1 1 358 158 166 167 165 169
138 120 164 282 163 186 222 275 286 193 222 204 247 219 313 300 304 248 277 279 14 303 311 330 201 334 329 346 76 255 223 258 256 341 200 124 257 2 35 38 119 141 151 149 153
150 139 82 354 156 261 161 212 253 212 244 254 271 294 285 295 236 287 301 309 302 281 316 311 322 183 240 46 326 311 243 221 210 198 284 255 75 163 119 146 126 131 144 150 156
10 208 193 164 226 209 164 142 179 236 224 224 274 219 271 285 296 259 288 320 310 359 353 7 290 352 354 287 289 178 307 312 231 238 209 317 297 66 147 166 161 139 143 153 160
137 144 222 138 108 141 189 208 195 220 163 225 234 285 259 212 240 295 309 319 316 336 347 343 327 317 247 239 271 276 213 269 297 242 245 284 319 130 84 109 130 150 150 163 168
212 45 236 140 175 172 209 207 218 183 199 269 234 288 270 294 319 294 291 278 272 302 320 323 327 325 59 327 254 298 227 207 197 241 194 221 221 148 145 158 170 167 175 179 178